Temp
61 61 62 61 60 62 62 61 60 60 59 56 55 55 55 57 58 59 61 62 63 64 61 59 59 60 60 59 59 58 58 57 55 52 51 52 56 56 56 58 57 59 60
59 62 61 61 61 60 60 59 59 59 58 56 56 55 55 56 57 58 59 60 61 62 61 60 61 60 59 59 59 59 57 55 55 52 50 47 49 53 56 57 59 58 59
57 60 61 57 58 58 57 59 58 58 57 58 56 56 55 54 54 55 56 58 60 60 60 59 61 60 59 58 57 58 57 53 54 56 52 46 45 47 50 52 55 56 56
58 58 59 57 57 57 56 57 57 57 58 57 55 53 51 51 53 54 56 57 59 58 61 60 61 60 59 58 57 58 57 56 53 53 58 56 52 45 43 48 49 54 55
55 56 57 58 58 57 54 54 55 56 57 56 55 53 52 52 53 56 54 55 56 58 59 62 60 59 59 59 58 57 57 57 55 54 51 52 53 52 47 41 44 49 51
54 56 58 58 56 55 54 53 54 55 56 55 57 57 57 53 54 55 55 54 54 55 58 60 60 59 59 58 59 58 58 57 57 55 53 53 50 51 49 42 41 42 44
53 53 53 53 53 52 52 54 54 53 58 57 58 57 57 54 51 52 55 55 54 54 54 57 58 58 59 59 58 58 58 57 56 55 52 54 54 55 52 47 42 40 41
52 52 52 51 51 52 52 55 56 56 56 55 54 53 54 52 54 53 53 53 54 55 56 56 58 59 58 58 57 56 56 56 55 53 54 54 54 55 54 49 46 40 39
50 51 52 52 51 52 54 55 54 55 55 55 52 53 54 55 53 52 54 56 57 57 58 59 57 56 57 57 57 56 56 55 54 54 51 51 51 52 52 53 51 46 37
50 50 51 51 50 50 53 53 53 53 54 53 54 55 52 55 54 56 56 56 56 54 57 58 57 56 56 56 55 54 53 53 51 51 50 49 49 50 50 50 51 49 44
49 49 50 50 49 50 52 52 52 52 52 51 51 51 50 52 53 54 54 55 55 53 57 57 56 55 54 54 53 51 51 49 48 49 48 47 48 48 49 49 49 47 44
49 49 49 49 50 50 50 50 50 50 51 50 49 48 50 52 50 49 51 54 54 54 56 56 55 54 54 53 51 49 48 47 46 46 46 45 47 46 47 47 48 46 44
49 48 47 47 50 49 49 48 48 48 48 50 48 48 49 48 46 48 50 52 52 53 53 54 53 52 50 49 49 48 46 46 45 45 45 43 45 44 44 46 44 43 43
49 47 45 46 48 48 47 46 46 46 46 46 46 47 48 47 46 46 47 49 50 51 51 51 51 51 48 48 47 46 44 43 43 43 44 45 45 45 44 44 42 42 39
48 46 44 46 47 46 45 45 45 45 44 44 47 46 46 45 44 43 43 44 45 46 47 47 48 47 46 46 45 45 44 44 42 43 44 45 45 45 46 41 39 37 36
47 45 45 46 45 44 43 44 43 42 43 45 45 45 44 44 43 42 42 41 42 42 43 42 44 44 45 46 46 45 43 43 42 40 41 43 44 46 47 47 46 41 35
45 44 44 45 44 43 43 42 42 42 42 42 43 43 43 42 42 42 41 40 39 41 40 41 43 43 44 46 46 46 44 42 41 41 41 42 43 41 40 43 44 45 45
44 45 45 44 44 44 42 43 42 41 40 40 41 41 41 40 41 40 40 39 40 39 39 40 42 43 45 47 47 47 45 43 42 42 41 40 39 39 37 35 34 33 34
45 43 44 44 44 42 42 41 40 40 39 39 39 40 40 39 40 39 39 40 39 39 39 40 41 42 44 47 46 45 42 40 38 39 38 38 38 42 41 34 32 32 34
46 44 42 45 43 41 41 40 38 38 37 38 38 40 40 39 39 39 39 40 41 39 40 41 42 45 43 46 45 43 41 37 36 37 38 41 38 42 41 35 34 31 32
44 43 41 42 42 42 41 38 38 36 38 38 39 39 39 39 39 39 40 40 39 40 39 39 41 41 43 43 44 43 39 36 35 35 35 38 42 42 41 39 33 34 35
44 42 41 42 42 42 40 37 36 38 38 38 38 38 39 40 40 39 39 39 39 38 38 38 37 37 37 43 43 43 41 40 35 35 37 39 40 40 40 38 40 39 37
44 42 42 41 41 41 40 37 37 38 37 37 37 37 38 39 39 38 37 37 39 38 37 36 34 35 37 39 43 43 42 41 37 36 39 41 40 40 39 40 40 38 33
43 42 41 41 40 40 40 39 39 39 37 36 36 37 37 38 39 39 39 39 38 36 35 34 33 34 34 34 35 37 39 41 39 39 38 38 37 38 37 36 36 33 33
43 41 42 41 40 39 39 40 40 39 37 37 37 38 39 39 39 39 39 38 39 39 36 35 35 34 33 34 37 36 35 35 37 35 33 32 31 31 31 31 32 31 31
43 40 42 42 40 39 38 39 40 40 38 37 37 38 38 38 36 35 34 42 42 42 42 41 40 39 40 42 41 40 40 40 39 33 30 30 30 30 30 30 30 31 32
MSLP
1012.49 1012.74 1012.93 1013.15 1013.31 1013.43 1013.43 1013.42 1013.54 1013.53 1013.52 1013.55 1013.61 1013.44 1013.20 1012.84 1012.57 1012.37 1012.03 1012.09 1012.14 1011.99 1012.55 1013.34 1013.98 1014.25 1014.51 1014.98 1015.49 1016.07 1016.51 1017.12 1017.51 1018.03 1019.36 1020.08 1019.75 1020.42 1020.62 1020.70 1020.49 1020.89 1021.30
1012.61 1012.76 1013.01 1013.19 1013.30 1013.33 1013.35 1013.46 1013.41 1013.41 1013.39 1013.40 1013.40 1013.29 1013.08 1012.85 1012.64 1012.31 1012.00 1011.76 1011.85 1012.05 1012.05 1012.60 1013.27 1013.89 1014.31 1014.72 1015.22 1015.60 1016.34 1016.82 1017.31 1017.92 1018.73 1019.95 1020.77 1020.86 1020.42 1020.79 1021.01 1021.06 1021.17
1012.85 1012.94 1012.99 1013.16 1013.21 1013.29 1013.27 1013.25 1013.23 1013.19 1013.13 1013.16 1013.09 1013.02 1012.89 1012.78 1012.71 1012.40 1011.92 1011.63 1011.55 1011.67 1011.95 1012.30 1012.70 1013.40 1013.89 1014.32 1014.61 1015.09 1015.49 1016.19 1017.21 1017.19 1017.26 1018.87 1019.48 1020.96 1021.26 1021.10 1021.33 1021.30 1021.28
1013.14 1013.20 1013.17 1013.22 1013.36 1013.27 1013.27 1013.23 1013.22 1013.07 1012.87 1012.78 1012.85 1012.98 1012.96 1012.87 1012.56 1012.38 1011.91 1011.54 1011.21 1011.40 1011.45 1011.94 1012.16 1012.83 1013.37 1013.70 1014.22 1014.60 1015.14 1015.30 1016.13 1017.18 1016.51 1016.75 1017.77 1019.66 1021.38 1021.93 1021.74 1021.26 1021.23
1013.38 1013.38 1013.31 1013.28 1013.28 1013.24 1013.37 1013.33 1013.15 1012.95 1012.63 1012.44 1012.41 1012.54 1012.50 1012.44 1012.19 1011.92 1011.68 1011.47 1011.23 1010.97 1011.06 1011.16 1011.84 1012.27 1012.79 1013.19 1013.60 1014.13 1014.64 1015.07 1015.77 1016.10 1016.56 1017.13 1017.60 1018.22 1019.53 1020.98 1021.62 1022.19 1021.66
1013.44 1013.39 1013.30 1013.33 1013.38 1013.25 1013.26 1013.25 1013.05 1012.74 1012.32 1012.03 1011.84 1011.79 1011.81 1011.73 1011.73 1011.45 1011.33 1011.37 1011.21 1010.92 1010.61 1010.68 1011.15 1011.79 1012.05 1012.61 1012.96 1013.53 1013.88 1014.50 1015.06 1015.68 1015.95 1016.60 1017.01 1017.49 1018.29 1020.17 1021.61 1022.05 1022.36
1013.67 1013.75 1013.79 1013.62 1013.53 1013.50 1013.46 1013.27 1012.94 1012.59 1012.07 1011.78 1011.53 1011.30 1011.13 1011.13 1011.11 1011.06 1010.93 1010.80 1010.71 1010.60 1010.38 1010.32 1010.52 1011.11 1011.53 1011.97 1012.50 1012.92 1013.42 1013.87 1014.48 1015.18 1016.00 1015.94 1016.34 1016.80 1017.66 1019.03 1020.65 1021.64 1022.55
1013.76 1013.94 1013.94 1013.81 1013.71 1013.67 1013.40 1013.19 1012.80 1012.29 1011.99 1011.67 1011.40 1011.08 1010.75 1010.61 1010.44 1010.37 1010.20 1010.18 1010.16 1010.07 1009.89 1009.81 1009.84 1010.32 1010.93 1011.54 1012.01 1012.59 1013.14 1013.59 1014.05 1014.68 1015.33 1015.71 1015.92 1016.32 1016.77 1018.08 1019.46 1021.53 1022.42
1013.84 1013.95 1013.94 1013.82 1013.76 1013.68 1013.37 1012.96 1012.65 1012.15 1011.74 1011.39 1011.09 1010.71 1010.34 1010.00 1009.90 1009.65 1009.50 1009.30 1009.17 1009.29 1009.35 1009.12 1009.27 1009.86 1010.43 1011.09 1011.50 1012.23 1012.80 1013.35 1013.63 1014.43 1015.11 1015.73 1016.22 1016.65 1016.90 1017.29 1018.07 1019.12 1021.54
1013.85 1013.93 1013.95 1013.94 1013.93 1013.69 1013.39 1013.05 1012.62 1012.09 1011.59 1011.20 1010.81 1010.30 1010.00 1009.53 1009.12 1008.99 1008.84 1008.52 1008.53 1008.63 1008.67 1008.46 1008.60 1009.43 1010.03 1010.70 1011.24 1011.93 1012.62 1013.11 1013.67 1014.28 1015.09 1015.85 1016.49 1016.55 1017.06 1017.64 1017.88 1018.59 1019.46
1013.79 1013.86 1013.86 1013.91 1013.76 1013.51 1013.26 1012.91 1012.50 1012.06 1011.47 1010.98 1010.70 1010.36 1009.89 1009.22 1008.80 1008.63 1008.34 1007.96 1007.80 1007.85 1007.82 1007.72 1008.05 1008.89 1009.66 1010.43 1011.06 1011.85 1012.52 1013.23 1013.68 1014.44 1014.89 1015.77 1016.12 1016.84 1017.34 1017.68 1018.22 1018.56 1019.00
1013.72 1013.79 1013.90 1013.84 1013.65 1013.49 1013.32 1012.98 1012.59 1012.04 1011.44 1011.03 1010.69 1010.23 1009.68 1009.03 1008.70 1008.48 1007.73 1007.22 1007.18 1007.15 1006.93 1007.12 1007.61 1008.59 1009.34 1010.37 1011.01 1011.93 1012.57 1013.29 1014.01 1014.55 1015.31 1015.96 1016.30 1016.94 1017.58 1017.77 1018.35 1018.51 1018.89
1013.59 1013.70 1013.93 1013.93 1013.75 1013.64 1013.39 1013.15 1012.67 1012.03 1011.42 1010.86 1010.42 1009.91 1009.46 1008.95 1008.68 1008.20 1007.41 1006.85 1006.76 1006.68 1006.44 1006.68 1007.53 1008.53 1009.42 1010.48 1011.41 1012.17 1012.94 1013.42 1014.18 1014.69 1015.59 1016.17 1016.75 1017.32 1017.63 1018.28 1018.77 1018.64 1019.29
1013.77 1013.72 1013.98 1014.01 1013.83 1013.75 1013.49 1013.21 1012.69 1012.09 1011.47 1010.75 1010.14 1009.62 1009.31 1009.13 1008.85 1008.45 1007.73 1007.10 1006.59 1006.68 1006.98 1006.46 1007.83 1008.74 1009.52 1010.68 1011.72 1012.56 1013.37 1014.12 1014.85 1015.49 1015.89 1016.50 1016.46 1017.54 1017.68 1018.47 1018.51 1018.89 1019.68
1013.85 1013.89 1014.00 1014.00 1013.89 1013.76 1013.66 1013.32 1012.83 1012.24 1011.55 1010.39 1009.78 1009.67 1009.67 1009.51 1009.27 1009.05 1008.58 1008.13 1007.58 1007.55 1007.44 1008.23 1008.62 1009.17 1009.95 1010.95 1012.03 1012.89 1013.62 1014.40 1015.20 1016.17 1016.60 1016.66 1017.23 1017.40 1017.95 1018.46 1018.85 1019.40 1019.98
1014.10 1013.95 1014.04 1014.07 1014.02 1013.95 1013.82 1013.47 1013.10 1012.59 1011.81 1010.95 1010.43 1010.30 1010.22 1010.03 1009.95 1009.77 1009.56 1009.24 1008.91 1008.61 1008.99 1009.24 1009.25 1010.07 1010.30 1011.50 1012.16 1012.84 1014.08 1014.83 1015.94 1016.55 1017.51 1017.73 1017.71 1018.01 1018.49 1018.77 1019.33 1019.69 1020.34
1014.16 1014.11 1014.21 1014.23 1014.11 1014.07 1014.01 1013.74 1013.44 1012.97 1012.29 1011.72 1011.30 1010.93 1010.90 1010.75 1010.72 1010.54 1010.44 1010.34 1010.20 1009.98 1010.24 1010.63 1010.73 1010.95 1011.33 1012.29 1012.68 1013.36 1014.50 1015.54 1016.64 1017.13 1017.73 1018.29 1018.46 1018.91 1019.22 1019.55 1020.06 1020.62 1020.96
1014.03 1014.16 1014.36 1014.33 1014.14 1014.19 1014.13 1013.97 1013.71 1013.39 1012.80 1012.33 1012.04 1011.73 1011.57 1011.50 1011.53 1011.37 1011.28 1011.33 1011.29 1011.36 1011.43 1011.55 1011.60 1011.73 1012.52 1013.19 1013.32 1014.35 1015.16 1015.98 1016.98 1017.55 1018.00 1018.29 1018.96 1019.53 1019.78 1020.31 1021.14 1021.57 1021.83
1013.86 1014.10 1014.35 1014.25 1014.18 1014.34 1014.30 1014.19 1013.98 1013.75 1013.38 1013.08 1012.72 1012.46 1012.30 1012.20 1012.38 1012.27 1012.18 1012.10 1012.23 1012.33 1012.56 1013.03 1013.06 1012.77 1013.41 1013.96 1014.39 1015.01 1015.71 1016.70 1017.64 1018.21 1018.68 1019.01 1019.48 1020.05 1020.54 1021.02 1021.72 1022.34 1022.73
1013.65 1013.89 1014.28 1014.19 1014.23 1014.47 1014.45 1014.45 1014.27 1014.14 1013.87 1013.64 1013.35 1012.99 1012.84 1012.88 1013.00 1013.10 1013.04 1012.95 1013.06 1013.39 1013.69 1013.80 1013.82 1014.15 1014.76 1015.06 1015.20 1015.70 1016.54 1017.52 1018.37 1019.08 1019.51 1019.88 1020.20 1020.67 1021.06 1021.42 1021.88 1022.62 1023.26
1013.57 1013.78 1014.08 1014.14 1014.30 1014.51 1014.59 1014.68 1014.64 1014.52 1014.44 1014.12 1013.80 1013.60 1013.46 1013.47 1013.67 1013.84 1013.97 1013.91 1014.03 1014.34 1014.88 1014.96 1015.32 1015.53 1015.65 1015.98 1016.33 1016.82 1017.41 1018.02 1018.78 1019.56 1020.06 1020.39 1020.67 1021.02 1021.40 1021.83 1022.10 1022.60 1023.05
1013.47 1013.62 1013.94 1014.02 1014.31 1014.55 1014.71 1014.92 1014.97 1014.94 1014.80 1014.59 1014.36 1014.25 1014.08 1014.09 1014.27 1014.41 1014.72 1014.80 1014.85 1015.04 1015.56 1015.97 1016.49 1016.86 1016.98 1017.16 1017.48 1017.82 1018.18 1018.72 1019.11 1019.83 1020.26 1020.79 1021.20 1021.58 1021.69 1022.03 1022.31 1022.79 1023.13
1013.41 1013.42 1013.74 1013.97 1014.32 1014.57 1014.74 1014.98 1015.16 1015.14 1015.13 1015.00 1014.85 1014.89 1014.85 1014.95 1015.11 1015.24 1015.38 1015.52 1015.75 1015.97 1016.39 1016.76 1017.35 1017.79 1017.95 1018.02 1018.24 1018.51 1018.92 1019.41 1019.86 1020.45 1020.85 1021.08 1021.59 1021.97 1022.17 1022.39 1022.69 1023.19 1023.72
1013.21 1013.26 1013.60 1013.87 1014.25 1014.57 1014.76 1014.99 1015.19 1015.26 1015.37 1015.35 1015.30 1015.34 1015.40 1015.55 1015.66 1015.85 1016.02 1016.06 1016.32 1016.61 1016.95 1017.42 1017.87 1018.27 1018.64 1018.93 1019.13 1019.33 1019.70 1020.03 1020.48 1020.92 1021.40 1021.77 1022.07 1022.22 1022.43 1022.90 1023.38 1023.71 1023.88
1013.07 1013.17 1013.41 1013.61 1014.06 1014.51 1014.73 1014.96 1015.18 1015.32 1015.47 1015.60 1015.69 1015.74 1015.89 1016.00 1016.26 1016.42 1016.61 1016.75 1016.89 1017.04 1017.33 1017.80 1018.10 1018.42 1019.00 1019.42 1019.57 1019.74 1020.12 1020.45 1021.02 1021.48 1021.99 1022.36 1022.52 1022.85 1023.13 1023.37 1023.54 1023.66 1023.81
1012.87 1012.97 1013.13 1013.39 1013.86 1014.31 1014.64 1014.92 1015.18 1015.35 1015.52 1015.72 1015.94 1016.05 1016.14 1016.44 1016.74 1016.95 1017.27 1017.33 1017.35 1017.52 1017.74 1017.97 1018.15 1018.55 1019.01 1019.40 1019.76 1020.07 1020.34 1020.68 1021.19 1021.77 1022.25 1022.61 1022.84 1023.02 1023.16 1023.31 1023.47 1023.55 1023.66
Wind_Speed
6 4 3 3 3 4 2 3 4 5 3 2 3 4 4 4 3 4 7 7 5 7 7 7 7 7 8 7 10 9 10 4 9 7 7 3 6 5 4 3 4 5 4
7 7 5 5 5 5 4 4 5 5 4 2 3 3 3 4 4 4 5 6 6 5 6 8 7 8 7 10 11 12 7 3 7 6 4 4 2 1 3 2 4 4 3
6 5 2 3 4 6 5 5 5 5 5 6 3 3 3 3 4 5 4 5 7 6 5 6 7 9 8 8 11 12 15 7 8 11 5 4 4 4 3 3 4 5 4
6 5 5 6 7 6 5 6 6 7 6 6 3 5 4 4 4 4 4 5 7 7 6 6 10 10 8 10 11 11 11 7 11 8 1 2 7 5 5 1 2 1 6
5 6 6 5 7 6 5 6 7 8 7 6 5 5 6 4 4 5 6 6 6 8 9 11 9 11 9 10 13 14 13 9 9 6 4 2 5 6 4 4 3 1 0
7 7 6 7 6 6 6 7 8 8 8 7 8 8 8 7 6 7 6 5 6 4 9 11 11 10 11 11 11 13 15 11 11 6 3 5 4 4 4 4 3 3 2
6 7 8 8 7 7 7 8 7 8 8 6 9 8 7 7 8 8 8 8 6 7 6 10 10 7 10 10 10 12 13 12 11 12 7 4 4 6 4 5 4 4 1
5 7 7 7 7 7 7 11 14 11 8 8 8 7 8 4 6 7 7 6 7 7 8 10 11 12 10 10 10 8 9 10 10 11 8 4 3 4 6 7 9 4 2
6 7 7 7 6 8 12 11 11 12 8 8 7 7 7 7 7 8 7 8 9 9 11 13 10 9 9 11 12 9 11 8 9 10 7 5 3 2 4 6 9 8 5
5 6 6 6 6 6 11 10 11 10 8 8 7 7 7 9 6 7 10 10 10 10 13 13 11 9 10 11 11 8 8 10 6 7 10 8 4 4 4 4 5 2 5
5 6 6 6 5 8 11 9 10 8 9 8 9 9 9 10 6 6 10 13 10 9 13 13 11 10 11 11 10 8 9 9 9 8 9 7 9 4 4 4 2 3 4
4 5 4 7 6 9 12 9 10 10 11 10 10 10 9 8 5 9 12 11 9 8 11 13 10 10 12 10 10 10 8 11 9 9 9 8 5 7 3 3 2 4 4
7 6 5 6 9 9 11 9 10 11 11 13 12 11 10 4 6 8 11 7 7 6 6 12 12 13 12 11 9 10 9 9 9 9 9 9 9 6 4 4 4 4 4
9 6 5 7 9 10 8 9 11 10 13 13 10 8 3 4 5 7 7 6 0 4 4 9 12 13 13 12 10 11 11 10 9 8 8 7 9 8 8 4 6 5 6
10 6 5 8 9 9 8 9 10 13 14 13 5 3 5 5 6 8 7 9 8 7 10 8 11 12 13 11 13 13 13 14 13 9 8 7 10 12 8 5 5 6 6
11 7 6 8 9 7 7 9 10 11 11 10 6 6 6 6 7 7 8 9 9 11 10 10 9 11 8 21 22 18 13 14 12 13 10 10 14 17 19 17 14 9 6
8 7 7 7 6 6 7 8 9 9 8 8 7 7 7 7 8 8 9 9 9 10 11 8 9 12 14 22 24 24 13 13 12 11 11 9 10 13 12 21 22 18 16
6 5 5 6 4 5 6 7 7 7 7 8 7 7 7 7 7 9 9 10 9 10 9 9 9 12 14 21 23 21 14 13 11 11 11 12 10 9 12 12 12 10 9
6 2 4 4 3 4 5 5 6 7 7 7 7 6 7 8 7 9 8 9 10 11 11 8 11 14 13 18 22 17 13 13 12 11 10 10 10 17 17 11 11 9 9
3 3 3 2 3 4 4 5 5 6 7 6 6 6 7 8 8 8 9 9 11 11 9 12 12 18 13 17 20 16 10 12 9 9 10 16 11 16 15 9 9 9 5
2 3 0 1 2 2 2 4 5 6 5 5 5 6 7 8 8 8 8 9 11 13 11 12 10 10 10 12 18 17 9 9 9 8 7 6 15 15 14 11 6 6 6
4 4 1 2 2 2 2 2 4 4 4 4 6 6 7 6 7 10 8 9 10 11 11 11 10 7 6 13 16 17 16 14 9 8 6 9 15 13 13 9 14 13 9
5 3 2 2 2 1 2 3 2 3 3 5 6 6 8 7 7 8 8 7 7 6 7 8 7 7 5 7 18 18 18 17 9 6 11 16 14 12 12 13 11 8 3
6 4 4 3 3 2 3 3 4 4 5 5 6 6 7 7 7 6 5 4 5 5 5 6 6 6 5 5 4 6 8 16 10 13 8 8 9 9 7 6 5 2 3
5 4 4 4 4 4 3 4 4 5 7 5 5 6 6 7 7 6 4 4 4 4 5 4 5 6 5 4 7 8 6 6 9 9 4 3 3 3 3 3 3 2 2
5 4 5 4 6 5 4 4 4 5 6 7 5 3 4 5 5 6 6 14 13 14 13 12 6 5 11 14 13 14 14 16 15 3 3 3 3 3 4 3 3 3 4
Wind_Direction
127 134 149 176 239 269 290 308 352 316 326 295 299 293 271 293 286 233 223 254 253 193 174 165 174 181 172 170 169 160 176 141 129 98 94 67 83 100 99 117 95 118 142
162 179 196 226 246 260 287 334 316 320 305 284 261 263 275 284 282 288 246 224 244 249 181 171 176 183 185 178 177 176 172 102 175 141 115 137 95 88 118 100 126 139 128
39 19 338 282 313 300 279 296 299 294 295 288 287 288 290 297 285 278 277 221 217 227 220 185 178 188 192 190 178 180 185 157 198 176 134 151 157 136 348 127 175 169 130
29 351 338 326 322 309 318 336 319 299 285 280 284 273 258 266 253 281 286 275 212 209 203 210 190 188 191 190 189 185 186 168 181 193 197 130 131 174 148 216 308 200 140
353 314 303 319 314 329 331 316 304 293 288 276 260 253 254 250 259 270 287 284 278 205 207 213 201 190 190 192 182 186 191 182 182 200 135 132 145 130 138 145 182 311 64
341 343 334 338 317 322 326 304 296 282 282 270 259 249 266 242 249 250 250 266 285 270 214 208 211 208 190 190 189 187 188 178 187 179 162 165 164 152 131 113 123 134 51
3 346 338 332 327 322 339 316 309 303 296 306 294 273 258 241 242 246 247 250 247 261 230 209 205 205 200 192 182 186 193 184 184 181 183 162 169 148 129 115 140 136 87
10 344 332 334 335 339 331 324 318 308 295 280 287 284 268 247 253 238 234 236 248 255 241 213 201 204 196 191 175 185 186 185 178 175 180 157 155 147 148 143 145 119 134
6 338 335 327 334 337 333 320 313 300 303 300 291 285 284 260 248 251 245 248 245 245 256 224 191 204 178 191 176 184 185 178 172 173 138 127 97 126 104 144 163 141 144
353 345 321 2 344 339 321 318 313 308 313 307 298 299 299 284 269 279 281 255 245 236 244 222 188 190 184 175 158 165 160 160 144 146 142 144 140 103 102 142 163 173 133
347 339 329 348 348 339 325 314 312 318 309 304 300 301 299 283 289 293 283 271 249 240 244 207 177 164 160 156 149 142 147 139 133 128 131 131 120 128 146 135 177 154 120
345 344 353 350 343 342 324 312 322 315 313 306 306 306 299 289 309 292 286 259 244 252 221 189 170 157 163 154 144 140 147 141 133 119 124 121 105 115 117 110 182 136 118
341 351 15 347 337 337 319 332 319 312 312 316 305 299 298 331 317 308 308 239 234 238 257 165 151 139 139 128 124 132 128 127 128 127 141 135 143 137 135 152 159 112 97
335 355 356 345 335 331 334 325 319 327 320 308 298 287 357 354 342 339 355 345 281 180 115 114 131 128 126 123 126 124 117 110 108 111 119 148 130 161 124 138 130 121 112
338 341 5 342 339 333 334 329 329 332 324 311 308 42 45 21 21 14 14 32 35 53 86 104 116 122 123 126 128 122 118 115 106 93 94 86 112 108 119 126 105 110 108
333 340 1 339 338 341 332 332 338 332 334 357 28 39 38 36 32 35 29 46 49 62 73 76 112 118 115 134 132 123 119 109 105 103 95 92 94 93 98 98 97 99 117
331 334 351 337 331 337 338 334 338 332 345 3 17 31 39 43 41 50 50 45 54 72 70 68 89 111 113 125 123 117 115 111 113 116 116 113 96 95 95 87 82 82 87
316 330 336 327 339 350 344 340 343 342 359 12 20 36 50 54 56 60 64 61 62 67 77 77 92 105 111 120 111 111 113 109 109 112 116 110 107 103 104 98 88 76 71
307 44 330 315 351 9 351 348 349 360 9 18 24 40 61 64 66 70 69 83 77 76 71 77 96 92 98 105 108 108 100 97 90 86 86 95 102 116 113 104 102 92 86
297 85 310 336 17 32 1 5 10 9 18 23 27 50 72 78 81 83 79 79 86 84 86 81 79 94 99 102 104 104 107 104 102 92 97 104 110 115 117 108 118 107 114
321 112 125 82 36 56 37 28 19 27 15 26 46 59 79 86 84 82 83 91 95 97 95 91 76 79 88 96 105 108 108 114 111 109 107 103 108 109 111 110 108 124 131
313 130 160 108 66 81 98 65 50 39 32 42 57 55 71 80 87 93 91 91 96 92 90 88 80 63 63 102 110 111 107 110 107 108 104 113 115 111 107 98 119 125 113
313 152 158 146 110 101 140 116 91 89 77 72 66 63 76 76 79 91 95 92 94 88 92 93 97 89 70 90 105 109 112 111 100 102 117 116 119 126 119 120 119 119 128
316 166 162 175 159 145 110 121 124 116 100 87 86 86 91 94 89 82 83 93 92 96 96 105 107 104 92 87 79 96 108 108 106 112 107 123 122 115 125 123 136 139 147
306 183 193 178 162 152 143 132 134 129 116 110 99 101 107 102 93 75 79 68 73 101 116 99 107 121 115 123 124 125 120 114 122 114 89 98 96 115 141 156 175 183 180
299 200 202 171 159 153 157 134 137 137 128 118 117 104 92 97 93 92 74 64 82 93 96 108 111 107 126 136 135 135 135 135 135 106 123 142 163 177 180 185 203 208 212